TimeMDT,TemperatureF,Dew PointF,Humidity,Sea Level PressureIn,VisibilityMPH,Wind Direction,Wind SpeedMPH,Gust SpeedMPH,PrecipitationIn,Events,Conditions,WindDirDegrees,DateUTC
12:53 AM,33.1,26.1,75,30.04,10.0,Calm,Calm,-,N/A,,Clear,0,2013-10-09 06:53:00
1:53 AM,37.0,27.0,67,30.06,10.0,Calm,Calm,-,N/A,,Overcast,0,2013-10-09 07:53:00
2:53 AM,37.0,28.0,70,30.07,10.0,West,5.8,-,N/A,,Overcast,280,2013-10-09 08:53:00
3:53 AM,36.0,27.0,70,30.09,10.0,Calm,Calm,-,N/A,,Overcast,0,2013-10-09 09:53:00
4:53 AM,37.9,28.0,68,30.07,10.0,West,6.9,-,N/A,,Overcast,270,2013-10-09 10:53:00
5:53 AM,37.9,27.0,65,30.10,10.0,WSW,8.1,-,N/A,,Scattered Clouds,250,2013-10-09 11:53:00
6:53 AM,37.9,28.0,68,30.12,10.0,WSW,8.1,-,N/A,,Mostly Cloudy,250,2013-10-09 12:53:00
7:53 AM,37.0,28.9,73,30.13,10.0,WSW,6.9,-,N/A,,Partly Cloudy,250,2013-10-09 13:53:00
8:53 AM,39.9,30.9,70,30.15,10.0,West,8.1,-,N/A,,Clear,280,2013-10-09 14:53:00
9:53 AM,44.1,32.0,63,30.14,10.0,WNW,4.6,-,N/A,,Clear,290,2013-10-09 15:53:00
10:53 AM,46.0,32.0,58,30.13,10.0,NW,6.9,-,N/A,,Clear,310,2013-10-09 16:53:00
11:53 AM,48.9,32.0,52,30.11,10.0,NNW,9.2,-,N/A,,Clear,340,2013-10-09 17:53:00
12:53 PM,51.1,32.0,48,30.09,10.0,North,5.8,-,N/A,,Clear,350,2013-10-09 18:53:00
1:53 PM,53.1,30.9,43,30.04,10.0,Variable,4.6,-,N/A,,Clear,0,2013-10-09 19:53:00
2:53 PM,55.0,30.0,38,30.00,10.0,NNE,5.8,-,N/A,,Clear,30,2013-10-09 20:53:00
3:53 PM,55.9,30.9,39,29.98,10.0,NNW,4.6,-,N/A,,Clear,340,2013-10-09 21:53:00
4:53 PM,55.9,32.0,40,29.95,10.0,North,6.9,-,N/A,,Clear,350,2013-10-09 22:53:00
5:53 PM,55.0,32.0,42,29.94,10.0,North,4.6,-,N/A,,Clear,360,2013-10-09 23:53:00
6:53 PM,48.9,34.0,56,29.95,10.0,North,3.5,-,N/A,,Clear,10,2013-10-10 00:53:00
7:53 PM,48.0,34.0,58,29.95,10.0,Calm,Calm,-,N/A,,Overcast,0,2013-10-10 01:53:00
8:53 PM,46.0,34.0,63,29.94,10.0,WSW,3.5,-,N/A,,Scattered Clouds,240,2013-10-10 02:53:00
9:53 PM,42.1,33.1,70,29.94,10.0,WSW,4.6,-,N/A,,Clear,240,2013-10-10 03:53:00
10:53 PM,39.0,32.0,76,29.93,10.0,NNW,3.5,-,N/A,,Clear,330,2013-10-10 04:53:00
11:53 PM,37.9,30.9,76,29.91,10.0,Calm,Calm,-,N/A,,Clear,0,2013-10-10 05:53:00